Regional Weather Roundup
Issued by NWS Charleston, SC

Current Version | Previous Version | Graphics & Text | Print | Product List | Glossary On
Versions: 1 2 3 4 5 6 7 8 9 10 11 12 13 14 15 16 17 18 19 20 21 22 23 24 25 26 27 28 29 30 31 32 33 34 35 36 37 38 39 40 41 42 43 44 45 46 47 48 49 50
000 ASUS42 KCHS 281225 RWRCHS REGIONAL WEATHER ROUNDUP NATIONAL WEATHER SERVICE CHARLESTON SC 700 AM EST FRI NOV 28 2014 NOTE: "FAIR" INDICATES FEW OR NO CLOUDS BELOW 12,000 FEET WITH NO SIGNIFICANT WEATHER AND/OR OBSTRUCTIONS TO VISIBILITY. NOT ALL STATIONS ARE QUALITY CONTROLLED BY THE NATIONAL WEATHER SERVICE. USE DATA WITH CAUTION...ESPECIALLY DEWPOINT OBSERVATIONS. SCZ027-030-031-034>040-042>050-281300- ...SOUTHEAST SOUTH CAROLINA... CITY SKY/WX TMP DP RH WIND PRES REMARKS N CHARLESTON CLEAR 36 24 62 N9 30.36R WCI 29 6HR MIN TEMP: 33; 6HR MAX TEMP: 37; WATERFRONT PRK N/A 39 N/A N/A N17G24 N/A WCI 30 MOUNT PLEASANT FAIR 34 32 93 N3 30.36R JOHNS ISLAND SUNNY 37 32 81 N12 30.36R WCI 30 PINOPOLIS N/A 39 28 65 NE15 30.29R WCI 31 MONCKS CORNER FAIR 37 30 75 N9 30.37R WCI 31 SUMMERVILLE FAIR 34 30 86 N3 30.38R BEAUFORT MCAS CLEAR 35 29 78 N8 30.36R WCI 29 6HR MIN TEMP: 35; 6HR MAX TEMP: 41; BEAUFORT ARPT FAIR 36 32 87 N7 30.36R WCI 30 HILTON HEAD IS CLEAR 37 32 81 N9G17 30.37 WCI 31 WALTERBORO SUNNY 32 N/A N/A N3 30.38R ALLENDALE FAIR 32 30 93 CALM 30.37S ...SOUTHERN MIDLANDS AND PEE DEE... CITY SKY/WX TMP DP RH WIND PRES REMARKS GEORGETOWN NOT AVBL KINGSTREE NOT AVBL ORANGEBURG CLEAR 30 25 81 CALM 30.37R 6HR MIN TEMP: 30; 6HR MAX TEMP: 36; BARNWELL N/A 30 28 93 CALM 30.38R AIKEN FAIR 28 27 93 CALM 30.39R MANNING NOT AVBL COLUMBIA CLEAR 33 24 69 NW3 30.37R 6HR MIN TEMP: 33; 6HR MAX TEMP: 40; SUMTER CLEAR 29 26 88 CALM 30.35R 6HR MIN TEMP: 28; 6HR MAX TEMP: 36; FLORENCE CLEAR 30 24 78 NW5 30.35R WCI 25 6HR MIN TEMP: 30; 6HR MAX TEMP: 37; MYRTLE BEACH CLEAR 34 27 75 NW9 30.35R WCI 26 N MYRTLE BEACH CLEAR 32 27 81 N5 30.34R WCI 27 6HR MIN TEMP: 32; 6HR MAX TEMP: 38; $$ GAZ063-065-086>088-099>101-113>116-118-119-134>141-150-281300- ...SOUTHEAST GEORGIA... CITY SKY/WX TMP DP RH WIND PRES REMARKS SAVANNAH ARPT CLEAR 35 28 75 N7 30.37R WCI 29 6HR MIN TEMP: 35; 6HR MAX TEMP: 41; HUNTER AAF CLEAR 35 29 79 NW8 30.34R WCI 29 6HR MIN TEMP: 35; 6HR MAX TEMP: 39; FORT STEWART CLEAR 34 28 80 N6 30.35R WCI 29 6HR MIN TEMP: 34; 6HR MAX TEMP: 40; STATESBORO NOT AVBL SYLVANIA SUNNY 33 32 94 CALM 30.38R CLAXTON NOT AVBL ...CSRA...CENTRAL AND FAR SOUTHEAST GEORGIA... CITY SKY/WX TMP DP RH WIND PRES REMARKS THOMSON CLEAR 27 27 100 CALM 30.43R AUGUSTA-BUSH CLEAR 25 24 96 CALM 30.38S 6HR MIN TEMP: 24; 6HR MAX TEMP: 36; AUGUSTA-DANIEL CLEAR 32 26 78 CALM 30.37R SWAINSBORO FAIR 32 32 100 CALM 30.38S VIDALIA CLEAR 32 30 93 N3 30.37S HAZLEHURST FAIR 33 31 90 N6 30.36S WCI 28 ALMA CLEAR 33 27 78 N5 30.36S WCI 29 6HR MIN TEMP: 33; 6HR MAX TEMP: 39; WAYCROSS CLEAR 36 32 88 CALM 30.37R JESUP FAIR 37 32 81 N5 30.37R WCI 34 BAXLEY FAIR 34 30 86 N3 30.36S BRUNSWICK CLEAR 36 30 80 NW5 30.37R WCI 32 SAINT SIMONS CLEAR 37 29 72 N10G18 30.35R WCI 30 6HR MIN TEMP: 37; 6HR MAX TEMP: 42; $$ SCZ027-028-034-036>038-045-046-048>050-GAZ119-141-281300- ...LAKE AND SUPPLEMENTAL COASTAL OBSERVATIONS... STATION/POSITION TIME TEMP WIND PRES WAVE SWELL AIR SEA DIR/SP/G HT/PER HT/PER/DIR (UTC) (F) (DEG/KT/KT) (MB) (FT/S) (FT/S/D) UPR LAKE MARION NOT AVBL WINYAH BAY 1200 34 340/ 7 1027.0S LAKE MURRAY 1200 31 CALM / 3 1027.4R ACE BASIN NERRS 1200 34 10/ 3 1027.0S FORT PULASKI 1200 36 330/ 7/ 8 1028.3R SAPELO ISLAND 1200 37 350/ 9 1028.0S $$ ANZ835-935-AMZ111-154-330-350-352-354-370-450-454-472-281300- ...C-MAN AND BUOY OBSERVATIONS... STATION/POSITION TIME TEMP WIND PRES WAVE SWELL AIR SEA DIR/SP/G HT/PER HT/PER/DIR (UTC) (F) (DEG/KT/KT) (MB) (FT/S) (FT/S/D) FOLLY BEACH CMAN 1200 38 360/ 14/ 18 1028.1R BUOY 41004 1200 48 72 10/ 21/ 29 1025.4R 6/ 6 2/10 BUOY 41008 1200 47 63 10/ 19/ 25 1026.8R 5/ 5 CAPERS NEARSHORE 1100 40 10/ 17/ 21 N/A FRIPP NEARSHORE NOT AVBL STATION/POSITION TIME TEMP WIND PRES WAVE SWELL AIR SEA DIR/SP/G HT/PER HT/PER/DIR (UTC) (F) (DEG/KT/KT) (MB) (FT/S) (FT/S/D) 5E ST. MARYS GA 1200 61 N/A 5/ 5 FRYING PAN BUOY 1200 44 68 350/ 21/ 25 1026.3R 5/ 6 2/100/ 9 BUOY 41025 1200 45 320/ 21/ 25 1023.2R 6/ 7 2/ 60/ 8 CAPE LOOKOUT NC 1200 38 350/ 17/ 21 1025.2R BUOY 41002 1053 58 73 340/ 23/ 29 1020.4 10/ 9 2/300/13 BUOY 41010 1200 65 77 350/ 19/ 23 1021.7R 8/ 8 3/ 70/14 ST AUGUSTINE FL 1200 39 320/ 11/ 13 1027.4R $$

USA.gov is the U.S. government's official web portal to all federal, state and local government web resources and services.